Flag Weather past 2 weeks in Miskolc, Hungary

Now
30 °F

Light freezing rain. Overcast.


Feels Like: 30 °F
Forecast: 32 / 35 °F
Wind: 1 mph from Northwest

Location: Miskolc

Current Time: Nov 28, 2014 at 8:37:19 AM

Latest Report: Nov 28, 2014 at 8:00 AM


Visibility: 0 mi

Pressure: 30.18 "Hg

Humidity: 91%

Dew point: 28 °F

Location of MiskolcLocation

Historic Weather in Miskolc — Graph

°F

Miskolc temperature yesterday

Maximum temperature yesterday: 32 °F (at 12:00 AM)
Minimum temperature yesterday: 28 °F (at 9:00 PM)
Average temperature yesterday: 30 °F

Past Weeks' High & Low Weather Summary

 TemperatureHumidityPressure
High57 °F (Nov 13, 1:00 PM)94% (Nov 15, 11:00 PM)30.47 "Hg (Nov 15, 11:00 PM)
Low28 °F (Nov 27, 9:00 PM)55% (Nov 23, 3:00 PM)29.87 "Hg (Nov 16, 3:00 PM)
Average42 °F86%30.15 "Hg
* Reported Nov 13 7:00 AM — Nov 28 7:00 AM, Miskolc, Weather by CustomWeather, © 2014

Note: Actual official high and low records may vary slightly from our data, if they occured in-between our weather recording intervals... More about our weather records

Advertising

Miskolc weather history for previous 24 hours

 ConditionsComfort  
Time TempWeatherWind HumidityBarometerVisibility
7:00 AM
Nov 28
30 °FLight freezing rain. Overcast.No wind91%30.17 "Hg1 mi
6:00 AM29 °FFog.No wind90%30.17 "Hg1 mi
5:00 AM29 °FFog.No wind88%30.17 "Hg1 mi
4:00 AM29 °FFog.1 mph89%30.17 "Hg1 mi
3:00 AM29 °FFog.1 mph89%30.17 "Hg1 mi
2:00 AM29 °FFog.No wind91%30.18 "Hg1 mi
1:00 AM28 °FFog.1 mph91%30.18 "Hg1 mi
12:00 AM28 °FFog.1 mph92%30.19 "Hg1 mi
11:00 PM
Nov 27
28 °FFog.No wind93%30.19 "Hg1 mi
10:00 PM28 °FFog.1 mph93%30.19 "Hg1 mi
9:00 PM28 °FFog.No wind93%30.19 "Hg1 mi
8:00 PM28 °FFog.1 mph93%30.19 "Hg1 mi
7:00 PM28 °FFog.1 mph93%30.19 "Hg0 mi
6:00 PM28 °FFog.1 mph92%30.19 "Hg0 mi
5:00 PM29 °FFog.No wind93%30.20 "Hg1 mi
4:00 PM29 °FFog.1 mph92%30.20 "Hg1 mi
3:00 PM29 °FFog.1 mph92%30.20 "Hg1 mi
2:00 PM30 °FFog.1 mph92%30.20 "Hg1 mi
1:00 PM30 °FFog.1 mph92%30.22 "Hg1 mi
12:00 PM30 °FDrizzle. Overcast.1 mph93%30.23 "Hg1 mi
11:00 AM30 °FFog.1 mph92%30.24 "Hg1 mi
10:00 AM29 °FFog.1 mph93%30.24 "Hg1 mi
9:00 AM29 °FFog.1 mph93%30.25 "Hg1 mi
8:00 AM30 °FFog.1 mph93%30.24 "Hg1 mi
Weather by CustomWeather, © 2014

See weather overviewHow to use our weather pages